DW7214 Weather Reports


time (UTC)temp
C
wind
direction
speed
KPH
gust
KPH
rain 1hr
cm
rain 24hr
cm
rain mn
cm
humidity
%
barometer
mb
20260506230007 21 102 1.6 9.7 0.00 0.00 0.00 59 1020.4
20260506224512 21 99 4.8 14.5 0.00 0.00 0.00 57 1020.5
20260506223018 21 112 1.6 9.7 0.00 0.00 0.00 60 1020.7
20260506221522 21 130 4.8 12.9 0.00 0.00 0.00 58 1020.6
20260506220016 21 110 3.2 11.3 0.00 0.00 0.00 61 1020.6
20260506214512 21 67 3.2 14.5 0.00 0.00 0.00 61 1020.6
20260506213016 21 131 4.8 12.9 0.00 0.00 0.00 64 1020.7
20260506211521 21 92 3.2 11.3 0.00 0.00 0.00 66 1020.8
20260506210025 21 64 4.8 11.3 0.00 0.00 0.00 62 1021.0
20260506204511 21 176 3.2 12.9 0.00 0.00 0.00 63 1021.0
20260506203015 20 90 3.2 11.3 0.00 0.00 0.00 65 1020.8
20260506201519 20 157 3.2 14.5 0.00 0.00 0.00 67 1021.0
20260506200021 19 146 4.8 17.7 0.00 0.00 0.00 66 1021.2
20260506194524 19 30 3.2 12.9 0.00 0.00 0.00 69 1021.3
20260506193013 18 97 3.2 12.9 0.00 0.00 0.00 71 1021.4
20260506191517 18 117 3.2 11.3 0.00 0.00 0.00 71 1021.4
20260506190021 17 13 3.2 12.9 0.00 0.00 0.00 73 1021.4
20260506184522 17 93 4.8 16.1 0.00 0.00 0.00 73 1021.5
20260506183026 17 169 3.2 12.9 0.00 0.00 0.00 76 1021.4
20260506181514 17 42 3.2 11.3 0.00 0.00 0.00 74 1021.6
20260506180017 17 295 6.4 14.5 0.00 0.00 0.00 73 1021.8
20260506174521 16 158 3.2 12.9 0.00 0.00 0.00 76 1021.7
20260506173027 16 178 4.8 12.9 0.00 0.00 0.00 75 1021.5
20260506171512 16 46 3.2 9.7 0.00 0.00 0.00 77 1021.4
20260506170021 15 188 1.6 6.4 0.00 0.00 0.00 81 1021.6
20260506164524 13 143 0.0 4.8 0.00 0.00 0.00 84 1021.8
20260506163017 13 206 0.0 4.8 0.00 0.00 0.00 85 1021.8
20260506161511 13 132 1.6 6.4 0.00 0.00 0.00 84 1021.9
20260506160020 13 166 0.0 4.8 0.00 0.00 0.00 85 1021.7
20260506154522 13 180 1.6 4.8 0.00 0.00 0.00 85 1021.5
20260506153025 12 57 0.0 6.4 0.00 0.00 0.00 86 1021.0
20260506151508 12 109 1.6 4.8 0.00 0.00 0.00 88 1021.6
20260506150015 11 110 0.0 3.2 0.00 0.00 0.00 89 1021.7
20260506144523 11 128 0.0 3.2 0.00 0.00 0.00 90 1021.6
20260506143028 11 116 0.0 3.2 0.00 0.00 0.00 91 1021.5
20260506141526 11 138 1.6 3.2 0.00 0.00 0.00 91 1021.1
20260506140013 10 119 0.0 3.2 0.00 0.00 0.00 92 1020.8
20260506134520 10 86 0.0 3.2 0.00 0.00 0.00 92 1020.4
20260506133025 10 119 0.0 3.2 0.00 0.00 0.00 91 1020.4
20260506131524 11 119 0.0 0.0 0.00 0.00 0.00 90 1020.3
20260506130012 11 119 0.0 3.2 0.00 0.00 0.00 90 1020.2
20260506124516 11 119 0.0 3.2 0.00 0.00 0.00 90 1020.2
20260506123020 11 64 0.0 3.2 0.00 0.00 0.00 89 1020.0
20260506121523 12 64 1.6 3.2 0.00 0.00 0.00 89 1020.0
20260506120027 12 70 0.0 3.2 0.00 0.00 0.00 89 1020.1
20260506114517 11 59 0.0 3.2 0.00 0.00 0.00 89 1019.9
20260506113018 11 138 0.0 3.2 0.00 0.00 0.00 89 1019.7
20260506111523 11 138 0.0 3.2 0.00 0.00 0.00 89 1019.6
20260506110030 11 90 0.0 3.2 0.00 0.00 0.00 89 1019.4
20260506104527 11 122 1.6 3.2 0.00 0.00 0.00 89 1019.2
20260506103018 11 117 0.0 3.2 0.00 0.00 0.00 89 1019.0
20260506101520 11 194 1.6 3.2 0.00 0.00 0.00 89 1018.9
20260506100023 11 88 0.0 4.8 0.00 0.00 0.00 89 1018.8
20260506094526 11 74 0.0 3.2 0.00 0.00 0.00 89 1018.8
20260506093030 11 121 1.6 8.0 0.00 0.00 0.00 88 1018.6
20260506091523 11 88 1.6 9.7 0.00 0.00 0.00 88 1018.6
20260506090023 11 110 1.6 4.8 0.00 0.00 0.00 88 1018.6
20260506084526 12 120 1.6 4.8 0.00 0.00 0.00 88 1018.5
20260506083025 12 118 0.0 8.0 0.00 0.00 0.00 87 1018.5
20260506081525 12 134 1.6 4.8 0.00 0.00 0.00 87 1018.5
20260506073012 12 133 1.6 4.8 0.00 0.00 0.00 87 1018.2
20260506071517 12 161 1.6 4.8 0.00 0.00 0.00 87 1018.0
20260506061518 12 115 1.6 6.4 0.00 0.00 0.00 84 1017.8
20260506044530 15 46 1.6 3.2 0.00 0.00 0.00 80 1017.4
20260506043023 15 246 0.0 3.2 0.00 0.00 0.00 83 1017.2
20260506041512 15 242 0.0 3.2 0.00 0.00 0.00 83 1017.1
20260506040042 15 241 0.0 3.2 0.00 0.00 0.00 83 1016.7
20260506034523 15 229 1.6 3.2 0.00 0.00 0.00 82 1016.5
20260506033022 16 208 0.0 3.2 0.00 0.00 0.00 80 1016.4
20260506031540 16 154 0.0 3.2 0.00 0.00 0.00 77 1016.3
20260506030012 17 119 0.0 3.2 0.00 0.00 0.00 74 1016.2
20260506024520 18 119 0.0 3.2 0.00 0.00 0.00 73 1016.0
20260506023021 18 56 0.0 3.2 0.00 0.00 0.00 70 1015.8
20260506021524 18 74 0.0 6.4 0.00 0.00 0.00 69 1015.8
20260506020010 18 50 0.0 4.8 0.00 0.00 0.00 69 1016.0
20260506014515 18 268 0.0 3.2 0.00 0.00 0.00 69 1015.8
20260506013021 18 340 1.6 6.4 0.00 0.00 0.00 68 1016.0
20260506011523 18 302 3.2 6.4 0.00 0.00 0.00 68 1016.0
20260506010012 18 295 1.6 6.4 0.00 0.00 0.00 69 1016.0
20260506004511 18 303 1.6 6.4 0.00 0.00 0.00 68 1016.1
20260506003008 18 337 4.8 9.7 0.00 0.00 0.00 67 1016.0
20260506001504 18 303 4.8 9.7 0.00 0.00 0.00 68 1016.1
20260506000004 18 311 3.2 11.3 0.00 0.00 0.00 69 1016.2
20260505234506 18 17 8.0 16.1 0.00 0.00 0.00 69 1016.3
20260505233004 18 351 4.8 11.3 0.00 0.00 0.00 70 1016.5
20260505231504 18 360 1.6 6.4 0.00 0.00 0.00 69 1016.5